TimeCDT,TemperatureF,Dew PointF,Humidity,Sea Level PressureIn,VisibilityMPH,Wind Direction,Wind SpeedMPH,Gust SpeedMPH,PrecipitationIn,Events,Conditions,WindDirDegrees,DateUTC
12:15 AM,71.6,64.4,78,30.00,10.0,SE,5.8,-,N/A,,Scattered Clouds,130,2013-06-20 05:15:00
12:35 AM,73.4,64.4,73,30.00,10.0,SE,6.9,-,N/A,,Scattered Clouds,140,2013-06-20 05:35:00
12:55 AM,71.6,64.4,78,30.00,10.0,SE,6.9,-,N/A,,Clear,140,2013-06-20 05:55:00
1:15 AM,71.6,64.4,78,30.00,10.0,SE,5.8,-,N/A,,Scattered Clouds,140,2013-06-20 06:15:00
1:35 AM,71.6,62.6,73,29.99,10.0,SE,5.8,-,N/A,,Scattered Clouds,140,2013-06-20 06:35:00
1:55 AM,71.6,62.6,73,29.99,10.0,SE,5.8,-,N/A,,Scattered Clouds,140,2013-06-20 06:55:00
2:15 AM,71.6,62.6,73,29.99,10.0,SE,5.8,-,N/A,,Scattered Clouds,140,2013-06-20 07:15:00
2:35 AM,69.8,62.6,78,29.98,10.0,SE,5.8,-,N/A,,Scattered Clouds,140,2013-06-20 07:35:00
2:55 AM,69.8,62.6,78,29.98,10.0,SE,5.8,-,N/A,,Clear,140,2013-06-20 07:55:00
3:15 AM,69.8,62.6,78,29.98,10.0,SSE,5.8,-,N/A,,Scattered Clouds,150,2013-06-20 08:15:00
3:35 AM,69.8,62.6,78,29.98,10.0,SSE,6.9,-,N/A,,Scattered Clouds,150,2013-06-20 08:35:00
3:55 AM,69.8,62.6,78,29.98,10.0,SSE,8.1,-,N/A,,Scattered Clouds,150,2013-06-20 08:55:00
4:15 AM,69.8,62.6,78,29.98,10.0,SSE,9.2,-,N/A,,Scattered Clouds,150,2013-06-20 09:15:00
4:35 AM,69.8,62.6,78,29.98,10.0,SSE,9.2,-,N/A,,Scattered Clouds,150,2013-06-20 09:35:00
4:55 AM,69.8,62.6,78,29.97,10.0,SSE,8.1,-,N/A,,Scattered Clouds,150,2013-06-20 09:55:00
5:15 AM,69.8,62.6,78,29.97,10.0,SE,9.2,-,N/A,,Scattered Clouds,140,2013-06-20 10:15:00
5:35 AM,69.8,62.6,78,29.97,10.0,SE,9.2,-,N/A,,Scattered Clouds,140,2013-06-20 10:35:00
5:55 AM,69.8,62.6,78,29.98,10.0,SE,9.2,-,N/A,,Clear,140,2013-06-20 10:55:00
6:15 AM,69.8,62.6,78,29.98,10.0,SE,8.1,-,N/A,,Clear,140,2013-06-20 11:15:00
6:35 AM,69.8,62.6,78,29.98,10.0,SSE,5.8,-,N/A,,Clear,150,2013-06-20 11:35:00
6:55 AM,71.6,62.6,73,29.98,10.0,SE,9.2,-,N/A,,Clear,140,2013-06-20 11:55:00
7:15 AM,71.6,64.4,78,29.98,10.0,SSE,11.5,-,N/A,,Clear,150,2013-06-20 12:15:00
7:35 AM,73.4,64.4,73,29.98,10.0,SSE,13.8,-,N/A,,Clear,160,2013-06-20 12:35:00
7:55 AM,73.4,64.4,73,29.98,10.0,SSE,12.7,17.3,N/A,,Clear,160,2013-06-20 12:55:00
8:15 AM,73.4,64.4,73,29.98,10.0,SSE,11.5,19.6,N/A,,Clear,160,2013-06-20 13:15:00
8:35 AM,75.2,64.4,69,29.98,10.0,SSE,15.0,20.7,N/A,,Scattered Clouds,160,2013-06-20 13:35:00
8:55 AM,75.2,64.4,69,29.98,10.0,SSE,13.8,17.3,N/A,,Scattered Clouds,160,2013-06-20 13:55:00
9:15 AM,77.0,66.2,69,29.97,10.0,SSE,13.8,18.4,N/A,,Clear,160,2013-06-20 14:15:00
9:35 AM,78.8,66.2,65,29.96,10.0,South,17.3,-,N/A,,Clear,170,2013-06-20 14:35:00
9:55 AM,80.6,66.2,61,29.96,10.0,South,16.1,25.3,N/A,,Clear,170,2013-06-20 14:55:00
10:15 AM,80.6,66.2,61,29.96,10.0,South,18.4,26.5,N/A,,Clear,180,2013-06-20 15:15:00
10:35 AM,82.4,66.2,58,29.95,10.0,South,18.4,26.5,N/A,,Clear,180,2013-06-20 15:35:00
10:55 AM,82.4,66.2,58,29.95,10.0,South,21.9,-,N/A,,Clear,170,2013-06-20 15:55:00
11:15 AM,84.2,68.0,58,29.95,10.0,South,16.1,26.5,N/A,,Clear,170,2013-06-20 16:15:00
11:35 AM,84.2,68.0,58,29.95,10.0,South,18.4,26.5,N/A,,Clear,170,2013-06-20 16:35:00
11:55 AM,84.2,68.0,58,29.95,10.0,South,19.6,26.5,N/A,,Scattered Clouds,170,2013-06-20 16:55:00
12:15 PM,86.0,68.0,55,29.95,10.0,South,15.0,25.3,N/A,,Scattered Clouds,170,2013-06-20 17:15:00
12:35 PM,86.0,68.0,55,29.95,10.0,SSE,16.1,25.3,N/A,,Clear,160,2013-06-20 17:35:00
12:55 PM,86.0,68.0,55,29.94,10.0,South,18.4,28.8,N/A,,Clear,180,2013-06-20 17:55:00
1:15 PM,87.8,69.8,55,29.93,10.0,SSE,20.7,28.8,N/A,,Clear,160,2013-06-20 18:15:00
1:35 PM,89.6,68.0,49,29.92,10.0,SSE,24.2,29.9,N/A,,Clear,160,2013-06-20 18:35:00
1:55 PM,87.8,68.0,52,29.91,10.0,South,17.3,27.6,N/A,,Clear,170,2013-06-20 18:55:00
2:15 PM,89.6,69.8,52,29.90,10.0,SSE,19.6,25.3,N/A,,Clear,160,2013-06-20 19:15:00
2:35 PM,89.6,68.0,49,29.89,10.0,SSE,23.0,31.1,N/A,,Clear,150,2013-06-20 19:35:00
2:55 PM,89.6,69.8,52,29.89,10.0,South,17.3,27.6,N/A,,Clear,170,2013-06-20 19:55:00
3:15 PM,89.6,69.8,52,29.88,10.0,SSE,18.4,28.8,N/A,,Scattered Clouds,150,2013-06-20 20:15:00
3:35 PM,91.4,68.0,46,29.88,10.0,South,25.3,28.8,N/A,,Scattered Clouds,180,2013-06-20 20:35:00
3:55 PM,89.6,68.0,49,29.88,10.0,South,21.9,31.1,N/A,,Clear,170,2013-06-20 20:55:00
4:15 PM,89.6,68.0,49,29.88,10.0,South,19.6,28.8,N/A,,Clear,180,2013-06-20 21:15:00
4:35 PM,89.6,69.8,52,29.88,10.0,SSE,20.7,29.9,N/A,,Scattered Clouds,160,2013-06-20 21:35:00
4:55 PM,91.4,69.8,49,29.87,10.0,South,17.3,27.6,N/A,,Scattered Clouds,170,2013-06-20 21:55:00
5:15 PM,89.6,69.8,52,29.87,10.0,South,18.4,27.6,N/A,,Clear,170,2013-06-20 22:15:00
5:35 PM,89.6,69.8,52,29.87,10.0,South,17.3,25.3,N/A,,Clear,170,2013-06-20 22:35:00
5:55 PM,89.6,69.8,52,29.87,10.0,SSE,19.6,26.5,N/A,,Scattered Clouds,160,2013-06-20 22:55:00
6:15 PM,89.6,69.8,52,29.87,10.0,South,19.6,-,N/A,,Clear,170,2013-06-20 23:15:00
6:35 PM,87.8,69.8,55,29.87,10.0,South,17.3,25.3,N/A,,Clear,170,2013-06-20 23:35:00
6:55 PM,89.6,69.8,52,29.87,10.0,South,16.1,26.5,N/A,,Clear,180,2013-06-20 23:55:00
7:15 PM,87.8,69.8,55,29.87,10.0,South,18.4,24.2,N/A,,Clear,170,2013-06-21 00:15:00
7:35 PM,87.8,69.8,55,29.87,10.0,South,19.6,-,N/A,,Clear,170,2013-06-21 00:35:00
7:55 PM,87.8,69.8,55,29.87,10.0,South,12.7,21.9,N/A,,Clear,170,2013-06-21 00:55:00
8:15 PM,86.0,69.8,58,29.88,10.0,South,12.7,21.9,N/A,,Clear,170,2013-06-21 01:15:00
8:35 PM,84.2,69.8,62,29.88,10.0,South,12.7,19.6,N/A,,Clear,170,2013-06-21 01:35:00
8:55 PM,84.2,69.8,62,29.89,10.0,South,11.5,-,N/A,,Clear,170,2013-06-21 01:55:00
9:15 PM,84.2,69.8,62,29.89,10.0,South,12.7,-,N/A,,Scattered Clouds,170,2013-06-21 02:15:00
9:35 PM,84.2,69.8,62,29.90,10.0,South,13.8,19.6,N/A,,Scattered Clouds,170,2013-06-21 02:35:00
9:55 PM,84.2,69.8,62,29.91,10.0,SSE,11.5,-,N/A,,Scattered Clouds,160,2013-06-21 02:55:00
10:15 PM,82.4,69.8,66,29.91,10.0,SSE,9.2,-,N/A,,Scattered Clouds,160,2013-06-21 03:15:00
10:35 PM,82.4,69.8,66,29.91,10.0,SSE,11.5,18.4,N/A,,Scattered Clouds,160,2013-06-21 03:35:00
10:55 PM,80.6,69.8,70,29.92,10.0,SSE,11.5,16.1,N/A,,Scattered Clouds,150,2013-06-21 03:55:00
11:15 PM,80.6,69.8,70,29.93,10.0,SSE,9.2,-,N/A,,Scattered Clouds,150,2013-06-21 04:15:00
11:35 PM,80.6,71.6,74,29.93,10.0,SSE,12.7,-,N/A,,Scattered Clouds,160,2013-06-21 04:35:00
11:55 PM,80.6,69.8,70,29.93,7.0,SSE,12.7,-,N/A,,Scattered Clouds,160,2013-06-21 04:55:00